Location: Newark
(54.2500°N, 9.1833°E)
Time: 03:14:22
(UTC+00:00)

Transit 4A - Pass Details

Date: 17 December 2019
Orbit: 871 x 973 km, 66.8° (Epoch: 23 January)

Event Time Altitude Azimuth Distance (km) Brightness Sun altitude
Rises 17:45:34 0° 267° (W) 3,566 12.4 -22.5°
Reaches altitude 10° 17:48:27 10° 278° (W) 2,608 11.3 -22.9°
Maximum altitude 17:53:43 30° 339° (NNW) 1,549 9.1 -23.7°
Enters shadow 17:56:01 24° 16° (NNE) 1,789 9.2 -24.0°
